CZ-6A DEB, 54445

Orbit data source: Space-Track

CZ-6A DEB, 54445 is space debris in SSO originally from a launch on Fri, 11 Nov 2022 UTC launched from the Taiyaun Space Center, China (TSC). Debris objects in space refer to the collection of defunct objects orbiting the Earth. Examples of debris include non-operational satellites, rocket bodies, and fragments generated from explosions, collisions, or faulty payload assembly.

Loading next visibility...
Identifier
54445, 2022-151FV
Orbit
SSO
Country
Flag of CNCN / PRC
Related business
Manufacturer
SAST
Mission
Spacecraft
Bus & Motor
Unknown
Mass
Unknown
Launch date (UTC)
2022-11-11 (4 years ago)
Launch vehicle
Unknown
Launch site
Taiyaun Space Center, China (TSC)
Object type
Payload
Rocket body
Debris
Shape & HBR
Unknown shape, 0.2 m
Radar Cross Section
Medium (>0.1 m² and <1 m²)

Expand to show TLE details & history
Last TLE update: 2 days ago

TLE from 2 days ago
0 CZ-6A DEB
1 54445U 22151FV  26171.35773532  .00000497  00000-0  19313-3 0  9995
2 54445  98.7343 215.3083 0051876 339.4149  20.4944 14.33530002188078
Epoch: 2026-06-20T08:35Z
TLE epoch observation values (Epoch: 2026-06-20T08:35:08.331Z)
Latitude
-0.00006°
Longitude
177.95008°
Altitude
748.122 km
Speed
7.499 km/s
True Right ascension
14h 21m 13s
True Declination
0° 00' 00"
Sunlit
Object was in full shadow at epoch
Visualization orbit readout
Latitude
Unknown
Longitude
Unknown
Altitude
Unknown
Speed
Unknown
Apparent Right ascension
Unknown
Apparent Declination
Unknown
Sunlit
N/A
Visualization observer readout
Local Sidereal Time
21:31:58
Azimuth
Unknown
Elevation
Unknown
Doppler factor
Unknown
Orbital elements
Apogee altitude
814.216 km
Perigee altitude
739.979 km
Semi-major axis
7,155.234 km
Eccentricity
0.00519
Inclination
98.7343°
RAAN
215.3083°
Arg. of periapsis
339.4149°
True anomaly
20.7038°
Mean anomaly
20.4944°
Eccentric anomaly
20.59897°
Mean motion
3.58598 °/min
Orbital period
100.39 mins
BSTAR
0.00019313
Loading maneuver chart data...
Computing Atmospheric mass density...
Loading historical data...
Loading historical data...
Loading historical data...
Loading historical data...
Loading historical data...
Loading historical data...
Loading historical data...

Documentation

Showing up to 5 results
|